Year,Month,Day,Hour,Minute,Value (Times are PST for temperature in C)
2011,09,16,00,00,12.90
2011,09,16,00,01,13.00
2011,09,16,00,02,12.90
2011,09,16,00,03,12.90
2011,09,16,00,04,12.90
2011,09,16,00,05,12.90
2011,09,16,00,06,12.90
2011,09,16,00,07,12.90
2011,09,16,00,08,12.90
2011,09,16,00,09,12.90
2011,09,16,00,10,12.90
2011,09,16,00,11,12.90
2011,09,16,00,12,12.90
2011,09,16,00,13,12.90
2011,09,16,00,14,12.90
2011,09,16,00,15,12.90
2011,09,16,00,16,12.90
2011,09,16,00,17,12.90
2011,09,16,00,18,12.90
2011,09,16,00,19,12.90
2011,09,16,00,20,12.90
2011,09,16,00,21,12.90
2011,09,16,00,22,12.90
2011,09,16,00,23,12.90
2011,09,16,00,24,12.90
2011,09,16,00,25,12.90
2011,09,16,00,26,12.90
2011,09,16,00,27,13.00
2011,09,16,00,28,13.00
2011,09,16,00,29,13.00
2011,09,16,00,30,13.00
2011,09,16,00,31,13.00
2011,09,16,00,32,13.00
2011,09,16,00,33,13.00
2011,09,16,00,34,12.90
2011,09,16,00,35,12.90
2011,09,16,00,36,12.90
2011,09,16,00,37,12.90
2011,09,16,00,38,12.90
2011,09,16,00,39,12.90
2011,09,16,00,40,12.90
2011,09,16,00,41,12.90
2011,09,16,00,42,12.90
2011,09,16,00,43,12.90
2011,09,16,00,44,12.90
2011,09,16,00,45,12.90
2011,09,16,00,46,12.90
2011,09,16,00,47,12.90
2011,09,16,00,48,12.90
2011,09,16,00,49,12.90
2011,09,16,00,50,12.90
2011,09,16,00,51,12.90
2011,09,16,00,52,12.90
2011,09,16,00,53,12.90
2011,09,16,00,54,12.90
2011,09,16,00,55,12.90
2011,09,16,00,56,12.90
2011,09,16,00,57,12.90
2011,09,16,00,58,12.90
2011,09,16,00,59,12.90
2011,09,16,01,00,12.90
2011,09,16,01,01,12.90
2011,09,16,01,02,12.90
2011,09,16,01,03,12.90
2011,09,16,01,04,12.90
2011,09,16,01,05,12.90
2011,09,16,01,06,12.90
2011,09,16,01,07,12.90
2011,09,16,01,08,12.90
2011,09,16,01,09,12.90
2011,09,16,01,10,12.80
2011,09,16,01,11,12.80
2011,09,16,01,12,12.90
2011,09,16,01,13,12.80
2011,09,16,01,14,12.80
2011,09,16,01,15,12.80
2011,09,16,01,16,12.80
2011,09,16,01,17,12.80
2011,09,16,01,18,12.80
2011,09,16,01,19,12.80
2011,09,16,01,20,12.80
2011,09,16,01,21,12.80
2011,09,16,01,22,12.80
2011,09,16,01,23,12.80
2011,09,16,01,24,12.80
2011,09,16,01,25,12.80
2011,09,16,01,26,12.80
2011,09,16,01,27,12.80
2011,09,16,01,28,12.80
2011,09,16,01,29,12.70
2011,09,16,01,30,12.70
2011,09,16,01,31,12.70
2011,09,16,01,32,12.70
2011,09,16,01,33,12.70
2011,09,16,01,34,12.70
2011,09,16,01,35,12.70
2011,09,16,01,36,12.70
2011,09,16,01,37,12.70
2011,09,16,01,38,12.70
2011,09,16,01,39,12.70
2011,09,16,01,40,12.70
2011,09,16,01,41,12.60
2011,09,16,01,42,12.60
2011,09,16,01,43,12.60
2011,09,16,01,44,12.60
2011,09,16,01,45,12.60
2011,09,16,01,46,12.60
2011,09,16,01,47,12.50
2011,09,16,01,48,12.50
2011,09,16,01,49,12.50
2011,09,16,01,50,12.50
2011,09,16,01,51,12.50
2011,09,16,01,52,12.40
2011,09,16,01,53,12.40
2011,09,16,01,54,12.40
2011,09,16,01,55,12.40
2011,09,16,01,56,12.40
2011,09,16,01,57,12.40
2011,09,16,01,58,12.30
2011,09,16,01,59,12.30
2011,09,16,02,00,12.30
2011,09,16,02,01,12.30
2011,09,16,02,02,12.30
2011,09,16,02,03,12.30
2011,09,16,02,04,12.30
2011,09,16,02,05,12.30
2011,09,16,02,06,12.30
2011,09,16,02,07,12.20
2011,09,16,02,08,12.20
2011,09,16,02,09,12.20
2011,09,16,02,10,12.20
2011,09,16,02,11,12.20
2011,09,16,02,12,12.20
2011,09,16,02,13,12.20
2011,09,16,02,14,12.20
2011,09,16,02,15,12.20
2011,09,16,02,16,12.20
2011,09,16,02,17,12.20
2011,09,16,02,18,12.10
2011,09,16,02,19,12.10
2011,09,16,02,20,12.10
2011,09,16,02,21,12.10
2011,09,16,02,22,12.10
2011,09,16,02,23,12.10
2011,09,16,02,24,12.00
2011,09,16,02,25,12.00
2011,09,16,02,26,12.00
2011,09,16,02,27,12.00
2011,09,16,02,28,12.00
2011,09,16,02,29,11.90
2011,09,16,02,30,11.90
2011,09,16,02,31,11.90
2011,09,16,02,32,11.90
2011,09,16,02,33,11.90
2011,09,16,02,34,11.80
2011,09,16,02,35,11.90
2011,09,16,02,36,11.90
2011,09,16,02,37,11.90
2011,09,16,02,38,11.90
2011,09,16,02,39,11.90
2011,09,16,02,40,11.90
2011,09,16,02,41,11.90
2011,09,16,02,42,11.90
2011,09,16,02,43,11.90
2011,09,16,02,44,11.90
2011,09,16,02,45,11.90
2011,09,16,02,46,11.90
2011,09,16,02,47,11.90
2011,09,16,02,48,11.80
2011,09,16,02,49,11.80
2011,09,16,02,50,11.80
2011,09,16,02,51,11.80
2011,09,16,02,52,11.80
2011,09,16,02,53,11.80
2011,09,16,02,54,11.80
2011,09,16,02,55,11.80
2011,09,16,02,56,11.80
2011,09,16,02,57,11.80
2011,09,16,02,58,11.80
2011,09,16,02,59,11.80
2011,09,16,03,00,11.80
2011,09,16,03,01,11.70
2011,09,16,03,02,11.70
2011,09,16,03,06,11.70
2011,09,16,03,07,11.70
2011,09,16,03,08,11.60
2011,09,16,03,09,11.60
2011,09,16,03,10,11.50
2011,09,16,03,11,11.50
2011,09,16,03,12,11.40
2011,09,16,03,13,11.40
2011,09,16,03,14,11.40
2011,09,16,03,15,11.30
2011,09,16,03,16,11.30
2011,09,16,03,17,11.30
2011,09,16,03,18,11.30
2011,09,16,03,19,11.30
2011,09,16,03,20,11.30
2011,09,16,03,21,11.20
2011,09,16,03,22,11.20
2011,09,16,03,23,11.20
2011,09,16,03,24,11.10
2011,09,16,03,25,11.10
2011,09,16,03,26,11.10
2011,09,16,03,27,11.00
2011,09,16,03,28,11.00
2011,09,16,03,29,11.00
2011,09,16,03,30,11.00
2011,09,16,03,31,11.00
2011,09,16,03,32,10.90
2011,09,16,03,33,10.90
2011,09,16,03,34,10.90
2011,09,16,03,35,10.90
2011,09,16,03,36,10.90
2011,09,16,03,37,11.00
2011,09,16,03,38,11.00
2011,09,16,03,39,11.10
2011,09,16,03,40,11.10
2011,09,16,03,41,11.10
2011,09,16,03,42,11.10
2011,09,16,03,43,11.10
2011,09,16,03,44,11.10
2011,09,16,03,45,11.10
2011,09,16,03,46,11.10
2011,09,16,03,47,11.10
2011,09,16,03,48,11.10
2011,09,16,03,49,11.10
2011,09,16,03,50,11.10
2011,09,16,03,51,11.10
2011,09,16,03,52,11.10
2011,09,16,03,53,11.10
2011,09,16,03,54,11.10
2011,09,16,03,55,11.10
2011,09,16,03,56,11.00
2011,09,16,03,57,11.00
2011,09,16,03,58,11.00
2011,09,16,03,59,11.00
2011,09,16,04,00,11.00
2011,09,16,04,01,11.10
2011,09,16,04,02,11.10
2011,09,16,04,03,11.10
2011,09,16,04,04,11.10
2011,09,16,04,05,11.10
2011,09,16,04,06,11.10
2011,09,16,04,07,11.10
2011,09,16,04,08,11.10
2011,09,16,04,09,11.10
2011,09,16,04,10,11.00
2011,09,16,04,11,11.00
2011,09,16,04,12,10.90
2011,09,16,04,13,10.90
2011,09,16,04,14,10.90
2011,09,16,04,15,10.80
2011,09,16,04,16,10.80
2011,09,16,04,17,10.80
2011,09,16,04,18,10.80
2011,09,16,04,19,10.80
2011,09,16,04,20,10.80
2011,09,16,04,21,10.80
2011,09,16,04,22,10.80
2011,09,16,04,23,10.80
2011,09,16,04,24,10.80
2011,09,16,04,25,10.80
2011,09,16,04,26,10.80
2011,09,16,04,27,10.80
2011,09,16,04,28,10.80
2011,09,16,04,29,10.80
2011,09,16,04,30,10.70
2011,09,16,04,31,10.70
2011,09,16,04,32,10.70
2011,09,16,04,33,10.60
2011,09,16,04,34,10.60
2011,09,16,04,35,10.50
2011,09,16,04,36,10.40
2011,09,16,04,37,10.40
2011,09,16,04,38,10.40
2011,09,16,04,39,10.40
2011,09,16,04,40,10.50
2011,09,16,04,41,10.60
2011,09,16,04,42,10.60
2011,09,16,04,43,10.60
2011,09,16,04,44,10.50
2011,09,16,04,45,10.50
2011,09,16,04,46,10.40
2011,09,16,04,47,10.40
2011,09,16,04,48,10.40
2011,09,16,04,49,10.40
2011,09,16,04,50,10.40
2011,09,16,04,51,10.40
2011,09,16,04,52,10.30
2011,09,16,04,53,10.30
2011,09,16,04,54,10.30
2011,09,16,04,55,10.30
2011,09,16,04,56,10.30
2011,09,16,04,57,10.30
2011,09,16,04,58,10.30
2011,09,16,04,59,10.20
2011,09,16,05,00,10.20
2011,09,16,05,01,10.20
2011,09,16,05,02,10.20
2011,09,16,05,03,10.30
2011,09,16,05,04,10.30
2011,09,16,05,05,10.30
2011,09,16,05,06,10.30
2011,09,16,05,07,10.30
2011,09,16,05,08,10.30
2011,09,16,05,09,10.20
2011,09,16,05,10,10.20
2011,09,16,05,11,10.20
2011,09,16,05,12,10.20
2011,09,16,05,13,10.20
2011,09,16,05,14,10.20
2011,09,16,05,15,10.20
2011,09,16,05,16,10.10
2011,09,16,05,17,10.10
2011,09,16,05,18,10.10
2011,09,16,05,19,10.10
2011,09,16,05,20,10.10
2011,09,16,05,21,10.10
2011,09,16,05,22,10.10
2011,09,16,05,23,10.20
2011,09,16,05,24,10.20
2011,09,16,05,25,10.20
2011,09,16,05,26,10.20
2011,09,16,05,27,10.30
2011,09,16,05,28,10.30
2011,09,16,05,29,10.30
2011,09,16,05,30,10.40
2011,09,16,05,31,10.40
2011,09,16,05,32,10.40
2011,09,16,05,33,10.40
2011,09,16,05,34,10.50
2011,09,16,05,35,10.50
2011,09,16,05,36,10.50
2011,09,16,05,37,10.50
2011,09,16,05,38,10.50
2011,09,16,05,39,10.50
2011,09,16,05,40,10.50
2011,09,16,05,41,10.50
2011,09,16,05,42,10.50
2011,09,16,05,43,10.40
2011,09,16,05,44,10.40
2011,09,16,05,45,10.40
2011,09,16,05,46,10.40
2011,09,16,05,47,10.40
2011,09,16,05,48,10.40
2011,09,16,05,49,10.30
2011,09,16,05,50,10.30
2011,09,16,05,51,10.30
2011,09,16,05,52,10.30
2011,09,16,05,53,10.30
2011,09,16,05,54,10.30
2011,09,16,05,55,10.30
2011,09,16,05,56,10.30
2011,09,16,05,57,10.30
2011,09,16,05,58,10.30
2011,09,16,05,59,10.30
2011,09,16,06,00,10.20
2011,09,16,06,01,10.20
2011,09,16,06,02,10.20
2011,09,16,06,03,10.20
2011,09,16,06,04,10.20
2011,09,16,06,05,10.20
2011,09,16,06,06,10.20
2011,09,16,06,07,10.10
2011,09,16,06,08,10.10
2011,09,16,06,09,10.10
2011,09,16,06,10,10.10
2011,09,16,06,11,10.00
2011,09,16,06,12,10.00
2011,09,16,06,13,10.00
2011,09,16,06,14,10.00
2011,09,16,06,15,10.00
2011,09,16,06,16,10.00
2011,09,16,06,17,10.00
2011,09,16,06,18,10.00
2011,09,16,06,19,9.90
2011,09,16,06,20,9.90
2011,09,16,06,21,9.90
2011,09,16,06,22,9.90
2011,09,16,06,23,9.80
2011,09,16,06,24,9.80
2011,09,16,06,25,9.70
2011,09,16,06,26,9.70
2011,09,16,06,27,9.60
2011,09,16,06,28,9.60
2011,09,16,06,29,9.50
2011,09,16,06,30,9.50
2011,09,16,06,31,9.40
2011,09,16,06,32,9.30
2011,09,16,06,33,9.30
2011,09,16,06,34,9.20
2011,09,16,06,35,9.20
2011,09,16,06,36,9.10
2011,09,16,06,37,9.10
2011,09,16,06,38,9.10
2011,09,16,06,39,9.00
2011,09,16,06,40,8.90
2011,09,16,06,41,8.90
2011,09,16,06,42,8.90
2011,09,16,06,43,8.90
2011,09,16,06,44,8.90
2011,09,16,06,45,8.80
2011,09,16,06,46,8.80
2011,09,16,06,47,8.80
2011,09,16,06,48,8.80
2011,09,16,06,49,8.70
2011,09,16,06,50,8.70
2011,09,16,06,51,8.70
2011,09,16,06,52,8.70
2011,09,16,06,53,8.70
2011,09,16,06,54,8.70
2011,09,16,06,55,8.70
2011,09,16,06,56,8.80
2011,09,16,06,57,8.80
2011,09,16,06,58,8.80
2011,09,16,06,59,8.80
2011,09,16,07,00,8.90
2011,09,16,07,01,8.90
2011,09,16,07,02,8.90
2011,09,16,07,03,8.90
2011,09,16,07,04,8.80
2011,09,16,07,05,8.80
2011,09,16,07,06,8.80
2011,09,16,07,07,8.80
2011,09,16,07,08,8.80
2011,09,16,07,09,8.80
2011,09,16,07,10,8.80
2011,09,16,07,11,8.70
2011,09,16,07,12,8.70
2011,09,16,07,13,8.70
2011,09,16,07,14,8.70
2011,09,16,07,15,8.70
2011,09,16,07,16,8.70
2011,09,16,07,17,8.70
2011,09,16,07,18,8.70
2011,09,16,07,19,8.70
2011,09,16,07,20,8.60
2011,09,16,07,21,8.70
2011,09,16,07,22,8.70
2011,09,16,07,23,8.70
2011,09,16,07,24,8.70
2011,09,16,07,25,8.70
2011,09,16,07,26,8.70
2011,09,16,07,27,8.60
2011,09,16,07,28,8.60
2011,09,16,07,29,8.70
2011,09,16,07,30,8.70
2011,09,16,07,31,8.70
2011,09,16,07,32,8.70
2011,09,16,07,33,8.80
2011,09,16,07,34,8.80
2011,09,16,07,35,8.90
2011,09,16,07,36,8.90
2011,09,16,07,37,9.00
2011,09,16,07,38,9.00
2011,09,16,07,39,9.10
2011,09,16,07,40,9.10
2011,09,16,07,41,9.20
2011,09,16,07,42,9.20
2011,09,16,07,43,9.30
2011,09,16,07,44,9.30
2011,09,16,07,45,9.40
2011,09,16,07,46,9.40
2011,09,16,07,47,9.50
2011,09,16,07,48,9.60
2011,09,16,07,49,9.70
2011,09,16,07,50,9.70
2011,09,16,07,51,9.80
2011,09,16,07,52,9.90
2011,09,16,07,53,10.00
2011,09,16,07,54,10.00
2011,09,16,07,55,10.10
2011,09,16,07,56,10.10
2011,09,16,07,57,10.20
2011,09,16,07,58,10.20
2011,09,16,07,59,10.30
2011,09,16,08,00,10.30
2011,09,16,08,01,10.30
2011,09,16,08,02,10.30
2011,09,16,08,03,10.40
2011,09,16,08,04,10.40
2011,09,16,08,05,10.40
2011,09,16,08,06,10.50
2011,09,16,08,07,10.50
2011,09,16,08,08,10.60
2011,09,16,08,09,10.70
2011,09,16,08,10,10.80
2011,09,16,08,11,10.90
2011,09,16,08,12,11.00
2011,09,16,08,13,11.10
2011,09,16,08,14,11.20
2011,09,16,08,15,11.30
2011,09,16,08,16,11.40
2011,09,16,08,17,11.50
2011,09,16,08,18,11.60
2011,09,16,08,19,11.70
2011,09,16,08,20,11.80
2011,09,16,08,21,11.90
2011,09,16,08,22,12.00
2011,09,16,08,23,12.10
2011,09,16,08,24,12.20
2011,09,16,08,25,12.20
2011,09,16,08,26,12.30
2011,09,16,08,27,12.40
2011,09,16,08,28,12.50
2011,09,16,08,29,12.60
2011,09,16,08,30,12.60
2011,09,16,08,31,12.70
2011,09,16,08,32,12.80
2011,09,16,08,33,12.80
2011,09,16,08,34,12.90
2011,09,16,08,35,12.90
2011,09,16,08,36,13.00
2011,09,16,08,37,13.10
2011,09,16,08,38,13.20
2011,09,16,08,39,13.20
2011,09,16,08,40,13.30
2011,09,16,08,41,13.40
2011,09,16,08,42,13.50
2011,09,16,08,43,13.70
2011,09,16,08,44,13.80
2011,09,16,08,45,13.90
2011,09,16,08,46,14.00
2011,09,16,08,47,14.10
2011,09,16,08,48,14.10
2011,09,16,08,49,14.10
2011,09,16,08,50,14.00
2011,09,16,08,51,14.00
2011,09,16,08,52,14.00
2011,09,16,08,53,14.00
2011,09,16,08,54,14.00
2011,09,16,08,55,14.00
2011,09,16,08,56,14.00
2011,09,16,08,57,14.00
2011,09,16,08,58,14.00
2011,09,16,08,59,13.90
2011,09,16,09,00,13.90
2011,09,16,09,01,13.90
2011,09,16,09,02,14.00
2011,09,16,09,03,14.00
2011,09,16,09,04,14.10
2011,09,16,09,05,14.10
2011,09,16,09,06,14.20
2011,09,16,09,07,14.20
2011,09,16,09,08,14.30
2011,09,16,09,09,14.30
2011,09,16,09,10,14.30
2011,09,16,09,11,14.30
2011,09,16,09,12,14.20
2011,09,16,09,13,14.20
2011,09,16,09,14,14.20
2011,09,16,09,15,14.20
2011,09,16,09,16,14.20
2011,09,16,09,17,14.20
2011,09,16,09,18,14.20
2011,09,16,09,19,14.10
2011,09,16,09,20,14.10
2011,09,16,09,21,14.10
2011,09,16,09,22,14.10
2011,09,16,09,23,14.20
2011,09,16,09,24,14.20
2011,09,16,09,25,14.20
2011,09,16,09,26,14.20
2011,09,16,09,27,14.20
2011,09,16,09,28,14.20
2011,09,16,09,29,14.20
2011,09,16,09,30,14.20
2011,09,16,09,31,14.20
2011,09,16,09,32,14.20
2011,09,16,09,33,14.20
2011,09,16,09,34,14.20
2011,09,16,09,35,14.30
2011,09,16,09,36,14.30
2011,09,16,09,37,14.30
2011,09,16,09,38,14.30
2011,09,16,09,39,14.40
2011,09,16,09,40,14.50
2011,09,16,09,41,14.60
2011,09,16,09,42,14.70
2011,09,16,09,43,14.70
2011,09,16,09,44,14.80
2011,09,16,09,45,14.80
2011,09,16,09,46,14.90
2011,09,16,09,47,15.00
2011,09,16,09,48,15.00
2011,09,16,09,49,15.00
2011,09,16,09,50,15.20
2011,09,16,09,51,15.30
2011,09,16,09,52,15.40
2011,09,16,09,53,15.50
2011,09,16,09,54,15.60
2011,09,16,09,55,15.70
2011,09,16,09,56,15.80
2011,09,16,09,57,15.80
2011,09,16,09,58,15.70
2011,09,16,09,59,15.70
2011,09,16,10,00,15.60
2011,09,16,10,01,15.60
2011,09,16,10,02,15.60
2011,09,16,10,03,15.60
2011,09,16,10,04,15.60
2011,09,16,10,05,15.50
2011,09,16,10,06,15.50
2011,09,16,10,07,15.50
2011,09,16,10,08,15.50
2011,09,16,10,09,15.50
2011,09,16,10,10,15.50
2011,09,16,10,11,15.50
2011,09,16,10,12,15.60
2011,09,16,10,13,15.70
2011,09,16,10,14,15.80
2011,09,16,10,15,15.90
2011,09,16,10,16,16.00
2011,09,16,10,17,16.10
2011,09,16,10,18,16.10
2011,09,16,10,19,16.20
2011,09,16,10,20,16.20
2011,09,16,10,21,16.30
2011,09,16,10,22,16.30
2011,09,16,10,23,16.30
2011,09,16,10,24,16.30
2011,09,16,10,25,16.40
2011,09,16,10,26,16.40
2011,09,16,10,27,16.40
2011,09,16,10,28,16.40
2011,09,16,10,29,16.30
2011,09,16,10,30,16.20
2011,09,16,10,31,16.10
2011,09,16,10,32,16.00
2011,09,16,10,33,15.90
2011,09,16,10,34,15.80
2011,09,16,10,35,15.70
2011,09,16,10,36,15.70
2011,09,16,10,37,15.70
2011,09,16,10,38,15.70
2011,09,16,10,39,15.70
2011,09,16,10,40,15.80
2011,09,16,10,41,15.80
2011,09,16,10,42,15.80
2011,09,16,10,43,15.80
2011,09,16,10,44,15.80
2011,09,16,10,45,15.80
2011,09,16,10,46,15.80
2011,09,16,10,47,15.80
2011,09,16,10,48,15.80
2011,09,16,10,49,15.90
2011,09,16,10,50,16.00
2011,09,16,10,51,16.10
2011,09,16,10,52,16.10
2011,09,16,10,53,16.10
2011,09,16,10,54,16.10
2011,09,16,10,55,16.10
2011,09,16,10,56,16.20
2011,09,16,10,57,16.20
2011,09,16,10,58,16.20
2011,09,16,10,59,16.20
2011,09,16,11,00,16.20
2011,09,16,11,01,16.20
2011,09,16,11,02,16.20
2011,09,16,11,03,16.20
2011,09,16,11,04,16.10
2011,09,16,11,05,16.10
2011,09,16,11,06,16.10
2011,09,16,11,07,16.10
2011,09,16,11,08,16.10
2011,09,16,11,09,16.10
2011,09,16,11,10,16.10
2011,09,16,11,11,16.10
2011,09,16,11,12,16.10
2011,09,16,11,13,16.20
2011,09,16,11,14,16.20
2011,09,16,11,15,16.20
2011,09,16,11,16,16.30
2011,09,16,11,17,16.30
2011,09,16,11,18,16.40
2011,09,16,11,19,16.50
2011,09,16,11,20,16.50
2011,09,16,11,21,16.50
2011,09,16,11,22,16.40
2011,09,16,11,23,16.40
2011,09,16,11,24,16.40
2011,09,16,11,25,16.40
2011,09,16,11,26,16.30
2011,09,16,11,27,16.30
2011,09,16,11,28,16.30
2011,09,16,11,29,16.30
2011,09,16,11,30,16.40
2011,09,16,11,31,16.40
2011,09,16,11,32,16.40
2011,09,16,11,33,16.50
2011,09,16,11,34,16.60
2011,09,16,11,35,16.60
2011,09,16,11,36,16.70
2011,09,16,11,37,16.80
2011,09,16,11,38,16.80
2011,09,16,11,39,16.90
2011,09,16,11,40,17.00
2011,09,16,11,41,17.10
2011,09,16,11,42,17.10
2011,09,16,11,43,17.20
2011,09,16,11,44,17.20
2011,09,16,11,45,17.20
2011,09,16,11,46,17.10
2011,09,16,11,47,17.00
2011,09,16,11,48,16.90
2011,09,16,11,49,16.80
2011,09,16,11,50,16.70
2011,09,16,11,51,16.60
2011,09,16,11,52,16.60
2011,09,16,11,53,16.60
2011,09,16,11,54,16.50
2011,09,16,11,55,16.40
2011,09,16,11,56,16.40
2011,09,16,11,57,16.50
2011,09,16,11,58,16.50
2011,09,16,11,59,16.60
2011,09,16,12,00,16.60
2011,09,16,12,01,16.60
2011,09,16,12,02,16.60
2011,09,16,12,03,16.60
2011,09,16,12,04,16.60
2011,09,16,12,05,16.60
2011,09,16,12,06,16.50
2011,09,16,12,07,16.50
2011,09,16,12,08,16.50
2011,09,16,12,09,16.50
2011,09,16,12,10,16.60
2011,09,16,12,11,16.60
2011,09,16,12,12,16.70
2011,09,16,12,13,16.70
2011,09,16,12,14,16.80
2011,09,16,12,15,16.80
2011,09,16,12,16,16.80
2011,09,16,12,17,16.80
2011,09,16,12,18,16.80
2011,09,16,12,19,16.90
2011,09,16,12,20,16.80
2011,09,16,12,21,16.80
2011,09,16,12,22,16.90
2011,09,16,12,23,17.00
2011,09,16,12,24,17.10
2011,09,16,12,25,17.20
2011,09,16,12,26,17.30
2011,09,16,12,27,17.30
2011,09,16,12,28,17.40
2011,09,16,12,29,17.40
2011,09,16,12,30,17.40
2011,09,16,12,31,17.30
2011,09,16,12,32,17.30
2011,09,16,12,33,17.30
2011,09,16,12,34,17.30
2011,09,16,12,35,17.30
2011,09,16,12,36,17.30
2011,09,16,12,37,17.30
2011,09,16,12,38,17.30
2011,09,16,12,39,17.30
2011,09,16,12,40,17.20
2011,09,16,12,41,17.20
2011,09,16,12,42,17.20
2011,09,16,12,43,17.20
2011,09,16,12,44,17.20
2011,09,16,12,45,17.30
2011,09,16,12,46,17.30
2011,09,16,12,47,17.30
2011,09,16,12,48,17.30
2011,09,16,12,49,17.30
2011,09,16,12,50,17.20
2011,09,16,12,51,17.20
2011,09,16,12,52,17.10
2011,09,16,12,53,17.10
2011,09,16,12,54,17.00
2011,09,16,12,55,17.00
2011,09,16,12,56,17.00
2011,09,16,12,57,17.00
2011,09,16,12,58,17.00
2011,09,16,12,59,17.10
2011,09,16,13,00,17.10
2011,09,16,13,01,17.10
2011,09,16,13,02,17.10
2011,09,16,13,03,17.10
2011,09,16,13,04,17.20
2011,09,16,13,05,17.20
2011,09,16,13,06,17.10
2011,09,16,13,07,17.00
2011,09,16,13,08,16.90
2011,09,16,13,09,16.80
2011,09,16,13,10,16.70
2011,09,16,13,11,16.60
2011,09,16,13,12,16.50
2011,09,16,13,13,16.50
2011,09,16,13,14,16.40
2011,09,16,13,15,16.40
2011,09,16,13,16,16.30
2011,09,16,13,17,16.30
2011,09,16,13,18,16.30
2011,09,16,13,19,16.40
2011,09,16,13,20,16.40
2011,09,16,13,21,16.40
2011,09,16,13,22,16.50
2011,09,16,13,23,16.50
2011,09,16,13,24,16.50
2011,09,16,13,25,16.50
2011,09,16,13,26,16.50
2011,09,16,13,27,16.50
2011,09,16,13,28,16.50
2011,09,16,13,29,16.50
2011,09,16,13,30,16.50
2011,09,16,13,31,16.50
2011,09,16,13,32,16.50
2011,09,16,13,33,16.50
2011,09,16,13,34,16.50
2011,09,16,13,35,16.60
2011,09,16,13,36,16.60
2011,09,16,13,37,16.60
2011,09,16,13,38,16.60
2011,09,16,13,39,16.60
2011,09,16,13,40,16.60
2011,09,16,13,41,16.60
2011,09,16,13,42,16.60
2011,09,16,13,43,16.60
2011,09,16,13,44,16.60
2011,09,16,13,45,16.70
2011,09,16,13,46,16.70
2011,09,16,13,47,16.70
2011,09,16,13,48,16.70
2011,09,16,13,49,16.70
2011,09,16,13,50,16.70
2011,09,16,13,51,16.70
2011,09,16,13,52,16.70
2011,09,16,13,53,16.70
2011,09,16,13,54,16.80
2011,09,16,13,55,16.80
2011,09,16,13,56,16.80
2011,09,16,13,57,16.80
2011,09,16,13,58,16.80
2011,09,16,13,59,16.80
2011,09,16,14,00,16.80
2011,09,16,14,01,16.80
2011,09,16,14,02,16.70
2011,09,16,14,03,16.70
2011,09,16,14,04,16.70
2011,09,16,14,05,16.60
2011,09,16,14,06,16.60
2011,09,16,14,07,16.60
2011,09,16,14,08,16.60
2011,09,16,14,09,16.60
2011,09,16,14,10,16.60
2011,09,16,14,11,16.50
2011,09,16,14,12,16.50
2011,09,16,14,13,16.40
2011,09,16,14,14,16.30
2011,09,16,14,15,16.30
2011,09,16,14,16,16.20
2011,09,16,14,17,16.20
2011,09,16,14,18,16.20
2011,09,16,14,19,16.20
2011,09,16,14,20,16.20
2011,09,16,14,21,16.10
2011,09,16,14,22,16.10
2011,09,16,14,23,16.10
2011,09,16,14,24,16.00
2011,09,16,14,25,16.00
2011,09,16,14,26,15.90
2011,09,16,14,27,15.90
2011,09,16,14,28,15.90
2011,09,16,14,29,15.80
2011,09,16,14,30,15.80
2011,09,16,14,31,15.80
2011,09,16,14,32,15.80
2011,09,16,14,33,15.80
2011,09,16,14,34,15.80
2011,09,16,14,35,15.70
2011,09,16,14,36,15.70
2011,09,16,14,37,15.70
2011,09,16,14,38,15.80
2011,09,16,14,39,15.80
2011,09,16,14,40,15.80
2011,09,16,14,41,15.80
2011,09,16,14,42,15.80
2011,09,16,14,43,15.80
2011,09,16,14,44,15.80
2011,09,16,14,45,15.90
2011,09,16,14,46,15.90
2011,09,16,14,47,15.90
2011,09,16,14,48,15.90
2011,09,16,14,49,16.00
2011,09,16,14,50,16.00
2011,09,16,14,51,16.00
2011,09,16,14,52,16.00
2011,09,16,14,53,16.00
2011,09,16,14,54,16.00
2011,09,16,14,55,16.00
2011,09,16,14,56,16.00
2011,09,16,14,57,16.00
2011,09,16,14,58,16.00
2011,09,16,14,59,16.10
2011,09,16,15,00,16.10
2011,09,16,15,01,16.10
2011,09,16,15,02,16.10
2011,09,16,15,03,16.10
2011,09,16,15,04,16.10
2011,09,16,15,05,16.10
2011,09,16,15,06,16.10
2011,09,16,15,07,16.10
2011,09,16,15,08,16.10
2011,09,16,15,09,16.10
2011,09,16,15,10,16.10
2011,09,16,15,11,16.10
2011,09,16,15,12,16.10
2011,09,16,15,13,16.10
2011,09,16,15,14,16.10
2011,09,16,15,15,16.10
2011,09,16,15,16,16.20
2011,09,16,15,17,16.20
2011,09,16,15,18,16.20
2011,09,16,15,19,16.20
2011,09,16,15,20,16.20
2011,09,16,15,21,16.20
2011,09,16,15,22,16.20
2011,09,16,15,23,16.10
2011,09,16,15,24,16.10
2011,09,16,15,25,16.10
2011,09,16,15,26,16.00
2011,09,16,15,27,16.00
2011,09,16,15,28,16.00
2011,09,16,15,29,15.90
2011,09,16,15,30,15.90
2011,09,16,15,31,15.90
2011,09,16,15,32,15.90
2011,09,16,15,33,15.90
2011,09,16,15,34,15.90
2011,09,16,15,35,15.90
2011,09,16,15,36,15.90
2011,09,16,15,37,16.00
2011,09,16,15,38,16.00
2011,09,16,15,39,16.10
2011,09,16,15,40,16.30
2011,09,16,15,41,16.40
2011,09,16,15,42,16.60
2011,09,16,15,43,16.70
2011,09,16,15,44,16.80
2011,09,16,15,45,16.80
2011,09,16,15,46,16.80
2011,09,16,15,47,16.80
2011,09,16,15,48,16.80
2011,09,16,15,49,16.90
2011,09,16,15,50,16.90
2011,09,16,15,51,16.80
2011,09,16,15,52,16.80
2011,09,16,15,53,16.70
2011,09,16,15,54,16.70
2011,09,16,15,55,16.70
2011,09,16,15,56,16.70
2011,09,16,15,57,16.60
2011,09,16,15,58,16.60
2011,09,16,15,59,16.60
2011,09,16,16,00,16.50
2011,09,16,16,01,16.50
2011,09,16,16,02,16.50
2011,09,16,16,03,16.50
2011,09,16,16,04,16.60
2011,09,16,16,05,16.60
2011,09,16,16,06,16.70
2011,09,16,16,07,16.70
2011,09,16,16,08,16.80
2011,09,16,16,09,16.90
2011,09,16,16,10,16.90
2011,09,16,16,11,16.90
2011,09,16,16,12,16.90
2011,09,16,16,13,16.90
2011,09,16,16,14,16.90
2011,09,16,16,15,16.90
2011,09,16,16,16,16.80
2011,09,16,16,17,16.80
2011,09,16,16,18,16.70
2011,09,16,16,19,16.70
2011,09,16,16,20,16.60
2011,09,16,16,21,16.60
2011,09,16,16,22,16.60
2011,09,16,16,23,16.60
2011,09,16,16,24,16.50
2011,09,16,16,25,16.50
2011,09,16,16,26,16.40
2011,09,16,16,27,16.40
2011,09,16,16,28,16.40
2011,09,16,16,29,16.40
2011,09,16,16,30,16.40
2011,09,16,16,31,16.30
2011,09,16,16,32,16.30
2011,09,16,16,33,16.30
2011,09,16,16,34,16.30
2011,09,16,16,35,16.40
2011,09,16,16,36,16.30
2011,09,16,16,37,16.30
2011,09,16,16,38,16.30
2011,09,16,16,39,16.20
2011,09,16,16,40,16.20
2011,09,16,16,41,16.20
2011,09,16,16,42,16.20
2011,09,16,16,43,16.10
2011,09,16,16,44,16.10
2011,09,16,16,45,16.00
2011,09,16,16,46,16.00
2011,09,16,16,47,16.00
2011,09,16,16,48,16.00
2011,09,16,16,49,15.90
2011,09,16,16,50,15.90
2011,09,16,16,51,15.90
2011,09,16,16,52,15.90
2011,09,16,16,53,15.90
2011,09,16,16,54,15.90
2011,09,16,16,55,15.90
2011,09,16,16,56,15.90
2011,09,16,16,57,15.90
2011,09,16,16,58,15.90
2011,09,16,16,59,15.90
2011,09,16,17,00,15.90
2011,09,16,17,01,15.90
2011,09,16,17,02,15.90
2011,09,16,17,03,15.90
2011,09,16,17,04,15.90
2011,09,16,17,05,15.90
2011,09,16,17,06,15.90
2011,09,16,17,07,15.90
2011,09,16,17,08,15.90
2011,09,16,17,09,16.00
2011,09,16,17,10,16.00
2011,09,16,17,11,16.00
2011,09,16,17,12,16.00
2011,09,16,17,13,16.00
2011,09,16,17,14,16.00
2011,09,16,17,15,16.00
2011,09,16,17,16,16.00
2011,09,16,17,17,16.00
2011,09,16,17,18,16.00
2011,09,16,17,19,16.00
2011,09,16,17,20,16.00
2011,09,16,17,21,16.00
2011,09,16,17,22,15.90
2011,09,16,17,23,15.90
2011,09,16,17,24,15.90
2011,09,16,17,25,15.80
2011,09,16,17,26,15.80